Home > Time Zones > World Clock > Weather > India > Thane > Past weeks

Flag for India Weather past 2 weeks in Thane, Maharashtra, India

81 °F

Partly sunny.

Feels Like: 81 °F
Forecast: 77 / 92 °F
Wind: 3 mph from Southeast

Location: Mumbai / Santacruz

Current Time: Nov 28, 2015 at 8:59:23 AM

Latest Report: Nov 28, 2015 at 8:30 AM

Visibility: 2 mi

Pressure: 29.92 "Hg

Humidity: 45%

Dew point: 57 °F

Location of ThaneLocation

Historic Weather in Thane — Graph


Thane temperature yesterday

Maximum temperature yesterday: 91 °F (at 12:30 PM)
Minimum temperature yesterday: 81 °F (at 7:30 AM)
Average temperature yesterday: 85 °F

Past Weeks' High & Low Weather Summary

High99 °F (Nov 20, 3:00 PM)84% (Nov 22, 10:00 PM)29.98 "Hg (Nov 22, 10:00 PM)
Low75 °F (Nov 18, 6:30 AM)19% (Nov 19, 3:30 PM)29.74 "Hg (Nov 15, 3:30 PM)
Average86 °F53%29.85 "Hg
* Reported Nov 13 7:40 AM — Nov 28 7:30 AM, Thane, Weather by CustomWeather, © 2015

Note: Actual official high and low records may vary slightly from our data, if they occured in-between our weather recording intervals... More about our weather records


Thane weather history for previous 24 hours

Time TempWeatherWind HumidityBarometerVisibility
7:30 AM
Sat, Nov 28
77 °FPartly sunny.5 mph57%29.89 "Hg2 mi
7:00 AM77 °FPassing clouds.6 mph57%29.86 "Hg2 mi
5:00 AM77 °FPassing clouds.No wind65%29.83 "Hg2 mi
4:30 AM77 °FPassing clouds.3 mph65%29.83 "Hg2 mi
4:00 AM77 °FPassing clouds.3 mph65%29.83 "Hg2 mi
3:30 AM79 °FPassing clouds.6 mph51%29.83 "Hg2 mi
3:00 AM79 °FPassing clouds.No wind58%29.83 "Hg2 mi
2:30 AM79 °FClear.No wind61%29.86 "Hg2 mi
2:00 AM79 °FClear.No wind58%29.86 "Hg2 mi
1:30 AM79 °FClear.No wind58%29.86 "Hg2 mi
1:00 AM79 °FClear.5 mph54%29.86 "Hg2 mi
12:30 AM79 °FClear.5 mph58%29.86 "Hg2 mi
12:00 AM79 °FClear.6 mph61%29.86 "Hg2 mi
11:30 PM
Fri, Nov 27
81 °FClear.6 mph58%29.86 "Hg2 mi
11:00 PM82 °FClear.7 mph55%29.86 "Hg2 mi
10:30 PM82 °FClear.7 mph55%29.86 "Hg2 mi
10:00 PM82 °FClear.5 mph55%29.86 "Hg2 mi
9:30 PM82 °FClear.5 mph55%29.86 "Hg2 mi
9:00 PM82 °FClear.5 mph55%29.83 "Hg2 mi
8:30 PM84 °FClear.8 mph51%29.83 "Hg2 mi
8:00 PM86 °FPassing clouds.6 mph49%29.83 "Hg2 mi
7:30 PM84 °FPassing clouds.8 mph51%29.80 "Hg2 mi
7:00 PM84 °FPassing clouds.6 mph51%29.80 "Hg2 mi
6:30 PM84 °FClear.7 mph55%29.80 "Hg2 mi
6:00 PM86 °FClear.8 mph49%29.77 "Hg3 mi
5:30 PM86 °FClear.9 mph49%29.77 "Hg3 mi
5:00 PM88 °FClear.7 mph43%29.77 "Hg4 mi
4:30 PM90 °FClear.8 mph41%29.74 "Hg4 mi
4:00 PM90 °FClear.8 mph41%29.77 "Hg3 mi
3:30 PM90 °FClear.9 mph46%29.77 "Hg3 mi
3:00 PM90 °FClear.10 mph46%29.77 "Hg3 mi
2:30 PM91 °FClear.10 mph44%29.77 "Hg2 mi
2:00 PM91 °FClear.9 mph44%29.77 "Hg2 mi
1:30 PM90 °FPassing clouds.12 mph49%29.80 "Hg2 mi
12:30 PM91 °FPassing clouds.6 mph46%29.83 "Hg2 mi
12:00 PM90 °FScattered clouds.8 mph49%29.86 "Hg1 mi
11:30 AM90 °FScattered clouds.3 mph49%29.86 "Hg1 mi
11:00 AM88 °FScattered clouds.6 mph52%29.86 "Hg1 mi
10:30 AM86 °FScattered clouds.7 mph55%29.89 "Hg1 mi
9:30 AM84 °FScattered clouds.No wind62%29.89 "Hg1 mi
9:00 AM82 °FScattered clouds.3 mph62%29.89 "Hg1 mi
8:30 AM82 °FScattered clouds.5 mph62%29.86 "Hg1 mi
8:00 AM81 °FScattered clouds.3 mph70%29.86 "Hg1 mi
Weather by CustomWeather, © 2015

See weather overviewHow to use our weather pages